sat.trackr.live / text

‹ back to catalog

KUIPER-00505

NORAD 68886 · 2026-095Y

PAYLOAD ACTIVE UNKNOWN

§ Identity

Operator
Country
US
Launch date
2026-04-28
Launch site
AFETR
Launch vehicle
Mass (kg)
RCS (m²)

External: N2YO · Heavens-Above · Gunter

§ Orbital elements

Epoch: 2026-09-20T03:38:10.070880Z

Period
97.30 min
Inclination
51.9007°
Eccentricity
0.0000696
Mean motion
14.79936521 rev/d
Perigee alt
629.0 km
Apogee alt
630.0 km
Semi-major
7,007.7 km
B*
3.2700e-4
RAAN
185.7364°
Arg perigee
85.3608°
Mean anomaly
274.7434°
Rev number
2,174

§ Raw data

KUIPER-005051 68886U 26095Y   26263.15150545  .00002273  00000+0  32700-3 0  99912 68886  51.9007 185.7364 0000696  85.3608 274.7434 14.79936521 21747

JSON: /api/v1/satellites/68886 · /tle

For live sub-satellite position, see the globe view (requires WebGL).

§ Visibility from observer

Set your observer location to see the next 7 days of passes ≥ 10°. The values pass through the URL so the page stays shareable.

No JS? Fill the form by hand. The geolocation button needs JavaScript.